📊 Raw Sensor Data
Showing records 43901 to 43925 of 85,026 total
| ID | Distance (ft) | Battery V | Battery A | Int Temp (°F) | Int Humid (%) | Ext Temp (°F) | Solar V | RSSI | SNR | Time Stamp |
|---|---|---|---|---|---|---|---|---|---|---|
| 41138 | 15.5 | 3.94 | 0 | 78 | 41 | 76 | 5.10 | -68 | 8 | 05/20/2025 10:45 AM |
| 41137 | 15.6 | 4.06 | 0 | 77 | 41 | 76 | 5.10 | -70 | 8 | 05/20/2025 10:30 AM |
| 41136 | 15.6 | 3.94 | 0 | 76 | 41 | 77 | 5.10 | -70 | 8 | 05/20/2025 10:15 AM |
| 41135 | 15.6 | 3.94 | 0 | 75 | 41 | 75 | 5.10 | -69 | 8 | 05/20/2025 10:00 AM |
| 41134 | 15.7 | 4.04 | 0 | 71 | 41 | 72 | 5.10 | -70 | 7 | 05/20/2025 09:15 AM |
| 41133 | 15.8 | 3.99 | 0 | 70 | 41 | 70 | 5.10 | -69 | 7 | 05/20/2025 09:00 AM |
| 41132 | 15.8 | 3.94 | 0 | 69 | 41 | 69 | 5.10 | -69 | 8 | 05/20/2025 08:45 AM |
| 41131 | 15.8 | 3.94 | 0 | 68 | 41 | 69 | 5.10 | -68 | 8 | 05/20/2025 08:30 AM |
| 41130 | 15.9 | 3.95 | 0 | 66 | 41 | 67 | 5.10 | -68 | 8 | 05/20/2025 08:15 AM |
| 41129 | 15.9 | 4.05 | 0 | 64 | 41 | 65 | 5.10 | -68 | 8 | 05/20/2025 08:00 AM |
| 41128 | 16.0 | 3.95 | 0 | 62 | 41 | 63 | 5.10 | -68 | 8 | 05/20/2025 07:45 AM |
| 41127 | 16.0 | 3.95 | 0 | 60 | 41 | 62 | 5.10 | -68 | 8 | 05/20/2025 07:30 AM |
| 41126 | 16.0 | 4.04 | 11 | 59 | 41 | 61 | 4.50 | -68 | 8 | 05/20/2025 07:15 AM |
| 41125 | 16.0 | 4.00 | 0 | 57 | 41 | 60 | 4.50 | -68 | 8 | 05/20/2025 07:00 AM |
| 41124 | 16.0 | 3.97 | 5 | 55 | 41 | 58 | 4.50 | -68 | 8 | 05/20/2025 06:45 AM |
| 41123 | 15.9 | 3.96 | 0 | 54 | 42 | 56 | 4.50 | -68 | 8 | 05/20/2025 06:30 AM |
| 41122 | 15.9 | 3.87 | 0 | 53 | 42 | 55 | 4.50 | -68 | 8 | 05/20/2025 06:15 AM |
| 41121 | 15.8 | 3.83 | -10 | 52 | 42 | 54 | 4.50 | -69 | 8 | 05/20/2025 06:00 AM |
| 41120 | 15.8 | 3.83 | -5 | 53 | 42 | 54 | 1.60 | -69 | 8 | 05/20/2025 05:45 AM |
| 41119 | 15.8 | 3.84 | -5 | 53 | 42 | 54 | 0.30 | -69 | 7 | 05/20/2025 05:30 AM |
| 41118 | 15.8 | 3.94 | -5 | 53 | 42 | 55 | 0.00 | -68 | 8 | 05/20/2025 05:15 AM |
| 41117 | 15.8 | 3.86 | -5 | 53 | 42 | 55 | 0.00 | -69 | 7 | 05/20/2025 05:00 AM |
| 41116 | 15.8 | 3.86 | -5 | 53 | 42 | 54 | 0.00 | -68 | 8 | 05/20/2025 04:45 AM |
| 41115 | 15.8 | 3.95 | -5 | 53 | 42 | 55 | 0.10 | -68 | 8 | 05/20/2025 04:30 AM |
| 41114 | 15.8 | 3.87 | -5 | 53 | 42 | 54 | 0.10 | -68 | 8 | 05/20/2025 04:15 AM |